Weather History for PANI - March, 2013

Change the Weather History Date:

Saturday, March 9, 2013

  Actual Average Record
Temperature  
Mean Temperature 25 °F -  
Max Temperature 35 °F 21 °F 42 °F (2005)
Min Temperature 15 °F 4 °F -23 °F (2006)
Degree Days  
Heating Degree Days 40    
Moisture  
Dew Point 15 °F    
Average Humidity 73    
Maximum Humidity 93    
Minimum Humidity 50    
Precipitation  
Precipitation 0.01 in - - ()
Sea Level Pressure  
Sea Level Pressure 29.92 in    
Wind  
Wind Speed 8 mph (SSW)    
Max Wind Speed 15 mph    
Max Gust Speed 29 mph    
Visibility 8 miles    
Events      
Averages and records for this station are not official NWS values.
T = Trace of Precipitation, MM = Missing Value Source: NWS Daily Summary

Daily Weather History Graph

Daily Weather History Graph

Search for Another Location

Airport or City:

Trip Planner

Search our weather history database for the weather conditions in past years. The results will help you decide how hot, cold, wet, or windy it might be!

Date:

Astronomy

Mar. 09, 2013 Rise Set
Actual Time 8:12 AM AKST 7:25 PM AKST
Civil Twilight 7:29 AM AKST 8:09 PM AKST
Nautical Twilight 6:38 AM AKST 9:00 PM AKST
Astronomical Twilight 5:45 AM AKST 9:54 PM AKST
Moon 7:10 AM AKST (3/9) 5:21 PM AKST (3/9)
Length of Visible Light 12h 39m
Length of Day
11h 12m
Waning Crescent, 5% of the Moon is Illuminated
Mar 9
Waning Crescent
Mar 11
New
Mar 19
First Quarter
Mar 27
Full
Apr 2
Last Quarter

Hourly Weather History & Observations

Time (AKST) Temp. Windchill Dew Point Humidity Pressure Visibility Wind Dir Wind Speed Gust Speed Precip Events Conditions
12:16 AM 32.0 °F 24.8 °F 30.2 °F 93% 29.55 in 2.0 mi SW 8.1 mph 16.1 mph 0.01 in   Overcast
12:36 AM 30.2 °F 24.3 °F 26.6 °F 86% 29.57 in 3.0 mi SSW 5.8 mph - 0.01 in   Overcast
12:56 AM 28.4 °F 19.7 °F 24.8 °F 86% 29.58 in 1.8 mi SW 9.2 mph - 0.01 in   Overcast
1:16 AM 26.6 °F 19.1 °F 24.8 °F 93% 29.60 in 1.8 mi SW 6.9 mph 21.9 mph N/A   Overcast
1:36 AM 26.6 °F 17.5 °F 23.0 °F 86% 29.62 in 2.0 mi WSW 9.2 mph 20.7 mph N/A   Overcast
1:56 AM 26.6 °F 16.8 °F 21.2 °F 80% 29.65 in 3.0 mi SW 10.4 mph 25.3 mph N/A   Overcast
2:16 AM 24.8 °F 16.1 °F 21.2 °F 86% 29.67 in 5.0 mi WSW 8.1 mph 23.0 mph N/A   Overcast
2:36 AM 24.8 °F 15.3 °F 19.4 °F 80% 29.69 in 5.0 mi WSW 9.2 mph 19.6 mph N/A   Overcast
2:56 AM 24.8 °F 15.3 °F 19.4 °F 80% 29.71 in 3.0 mi WSW 9.2 mph 18.4 mph N/A   Overcast
3:16 AM 23.0 °F 13.1 °F 19.4 °F 86% 29.72 in 5.0 mi SW 9.2 mph 17.3 mph N/A   Overcast
3:36 AM 23.0 °F 14.7 °F 19.4 °F 86% 29.74 in 9.0 mi WSW 6.9 mph 20.7 mph N/A   Overcast
3:56 AM 21.2 °F 10.1 °F 17.6 °F 86% 29.76 in 10.0 mi WSW 10.4 mph 20.7 mph N/A   Overcast
4:16 AM 21.2 °F 10.9 °F 19.4 °F 93% 29.77 in 9.0 mi WSW 9.2 mph 19.6 mph N/A   Overcast
4:36 AM 21.2 °F 11.7 °F 17.6 °F 86% 29.79 in 10.0 mi WSW 8.1 mph 16.1 mph N/A   Overcast
4:56 AM 21.2 °F 9.5 °F 17.6 °F 86% 29.80 in 10.0 mi WSW 11.5 mph 18.4 mph N/A   Overcast
5:16 AM 21.2 °F 11.7 °F 17.6 °F 86% 29.82 in 6.0 mi WSW 8.1 mph - N/A   Overcast
5:36 AM 21.2 °F 11.7 °F 17.6 °F 86% 29.84 in 10.0 mi WSW 8.1 mph - N/A   Overcast
5:56 AM 21.2 °F 11.7 °F 17.6 °F 86% 29.85 in 9.0 mi WSW 8.1 mph 18.4 mph N/A   Overcast
6:16 AM 21.2 °F 8.3 °F 17.6 °F 86% 29.86 in 10.0 mi West 13.8 mph 21.9 mph N/A   Overcast
6:36 AM 21.2 °F 13.6 °F 17.6 °F 86% 29.88 in 10.0 mi WSW 5.8 mph - N/A   Overcast
6:56 AM 19.4 °F 7.9 °F 15.8 °F 86% 29.89 in 10.0 mi WSW 10.4 mph 18.4 mph N/A   Overcast
7:16 AM 19.4 °F 6.6 °F 15.8 °F 86% 29.90 in 10.0 mi WSW 12.7 mph 19.6 mph N/A   Overcast
7:36 AM 17.6 °F 8.2 °F 14.0 °F 86% 29.92 in 10.0 mi WSW 6.9 mph 18.4 mph N/A   Overcast
7:56 AM 17.6 °F 10.7 °F 12.2 °F 79% 29.94 in 10.0 mi SW 4.6 mph - N/A   Overcast
8:16 AM 15.8 °F 5.1 °F 12.2 °F 86% 29.95 in 10.0 mi WSW 8.1 mph - N/A   Overcast
8:36 AM 15.8 °F 7.2 °F 10.4 °F 79% 29.97 in 10.0 mi WSW 5.8 mph - N/A   Overcast
8:56 AM 15.8 °F 10.2 °F 10.4 °F 79% 29.98 in 10.0 mi WSW 3.5 mph - N/A   Overcast
9:16 AM 15.8 °F 10.2 °F 10.4 °F 79% 29.99 in 10.0 mi South 3.5 mph - N/A   Overcast
9:36 AM 15.8 °F 10.2 °F 12.2 °F 86% 30.00 in 10.0 mi SW 3.5 mph - N/A   Overcast
9:56 AM 15.8 °F 7.2 °F 10.4 °F 79% 30.00 in 10.0 mi SW 5.8 mph - N/A   Scattered Clouds
10:16 AM 15.8 °F 5.1 °F 10.4 °F 79% 30.00 in 10.0 mi SW 8.1 mph - N/A   Clear
10:36 AM 15.8 °F 8.6 °F 10.4 °F 79% 30.02 in 10.0 mi SW 4.6 mph - N/A   Partly Cloudy
10:56 AM 17.6 °F 7.3 °F 10.4 °F 73% 30.02 in 10.0 mi SW 8.1 mph - N/A   Clear
11:16 AM 17.6 °F 9.3 °F 12.2 °F 79% 30.03 in 10.0 mi WSW 5.8 mph - N/A   Clear
11:36 AM 17.6 °F 9.3 °F 12.2 °F 79% 30.04 in 10.0 mi WSW 5.8 mph - N/A   Partly Cloudy
11:56 AM 17.6 °F 8.2 °F 12.2 °F 79% 30.04 in 10.0 mi WSW 6.9 mph - N/A   Partly Cloudy
12:16 PM 19.4 °F 9.5 °F 12.2 °F 74% 30.05 in 10.0 mi West 8.1 mph - N/A   Clear
12:36 PM 19.4 °F 10.4 °F 12.2 °F 74% 30.05 in 10.0 mi SW 6.9 mph - N/A   Clear
12:56 PM 19.4 °F 10.4 °F 12.2 °F 74% 30.05 in 10.0 mi West 6.9 mph - N/A   Clear
1:16 PM 21.2 °F 12.6 °F 12.2 °F 68% 30.06 in 10.0 mi SW 6.9 mph - N/A   Clear
1:36 PM 21.2 °F 14.9 °F 12.2 °F 68% 30.06 in 10.0 mi WSW 4.6 mph - N/A   Clear
1:56 PM 21.2 °F 16.4 °F 10.4 °F 63% 30.06 in 10.0 mi WSW 3.5 mph - N/A   Clear
2:16 PM 23.0 °F 17.0 °F 10.4 °F 59% 30.06 in 10.0 mi WSW 4.6 mph - N/A   Clear
2:36 PM 23.0 °F 14.7 °F 10.4 °F 59% 30.06 in 10.0 mi SE 6.9 mph - N/A   Clear
2:56 PM 23.0 °F 15.8 °F 12.2 °F 63% 30.06 in 10.0 mi SSE 5.8 mph - N/A   Clear
3:16 PM 23.0 °F 14.7 °F 8.6 °F 54% 30.06 in 10.0 mi SE 6.9 mph - N/A   Clear
3:36 PM 24.8 °F 16.9 °F 10.4 °F 54% 30.06 in 10.0 mi SE 6.9 mph - N/A   Clear
3:56 PM 24.8 °F 16.1 °F 10.4 °F 54% 30.06 in 10.0 mi ESE 8.1 mph - N/A   Clear
4:16 PM 23.0 °F 11.7 °F 8.6 °F 54% 30.05 in 10.0 mi ESE 11.5 mph - N/A   Clear
4:36 PM 23.0 °F 13.1 °F 8.6 °F 54% 30.05 in 10.0 mi ESE 9.2 mph - N/A   Clear
4:56 PM 24.8 °F 16.1 °F 10.4 °F 54% 30.05 in 10.0 mi ESE 8.1 mph - N/A   Partly Cloudy
5:16 PM 24.8 °F 16.1 °F 10.4 °F 54% 30.04 in 10.0 mi ESE 8.1 mph - N/A   Mostly Cloudy
5:36 PM 24.8 °F 16.1 °F 10.4 °F 54% 30.03 in 10.0 mi ESE 8.1 mph - N/A   Overcast
5:56 PM 24.8 °F 16.1 °F 10.4 °F 54% 30.03 in 10.0 mi ESE 8.1 mph - N/A   Overcast
6:16 PM 24.8 °F 14.0 °F 10.4 °F 54% 30.02 in 10.0 mi ESE 11.5 mph - N/A   Mostly Cloudy
6:36 PM 24.8 °F 14.6 °F 12.2 °F 59% 30.01 in 10.0 mi ESE 10.4 mph - N/A   Scattered Clouds
6:56 PM 24.8 °F 14.6 °F 12.2 °F 59% 30.01 in 10.0 mi SE 10.4 mph 16.1 mph N/A   Overcast
7:16 PM 24.8 °F 14.6 °F 12.2 °F 59% 30.01 in 10.0 mi SE 10.4 mph - N/A   Overcast
7:36 PM 24.8 °F 15.3 °F 12.2 °F 59% 30.01 in 10.0 mi SE 9.2 mph - N/A   Overcast
7:56 PM 24.8 °F 15.3 °F 15.8 °F 69% 30.00 in 3.0 mi SE 9.2 mph - N/A   Overcast
8:16 PM 24.8 °F 13.4 °F 15.8 °F 69% 30.00 in 2.5 mi ESE 12.7 mph - N/A   Overcast
8:36 PM 24.8 °F 14.0 °F 17.6 °F 74% 29.99 in 3.0 mi ESE 11.5 mph - N/A   Overcast
8:56 PM 26.6 °F 16.8 °F 15.8 °F 64% 29.98 in 10.0 mi SE 10.4 mph 16.1 mph N/A   Overcast
9:16 PM 26.6 °F 15.7 °F 17.6 °F 69% 29.97 in 10.0 mi SE 12.7 mph 20.7 mph N/A   Overcast
9:36 PM 26.6 °F 14.7 °F 15.8 °F 64% 29.96 in 10.0 mi SE 15.0 mph 19.6 mph N/A   Overcast
9:56 PM 26.6 °F 16.2 °F 15.8 °F 64% 29.95 in 10.0 mi SE 11.5 mph 21.9 mph N/A   Overcast
10:16 PM 26.6 °F 15.2 °F 15.8 °F 64% 29.94 in 10.0 mi SE 13.8 mph 20.7 mph N/A   Overcast
10:36 PM 26.6 °F 15.2 °F 15.8 °F 64% 29.94 in 10.0 mi SE 13.8 mph 24.2 mph N/A   Overcast
10:56 PM 26.6 °F 14.7 °F 15.8 °F 64% 29.93 in 8.0 mi SE 15.0 mph 28.8 mph N/A   Overcast
11:16 PM 26.6 °F 14.7 °F 17.6 °F 69% 29.92 in 3.0 mi SE 15.0 mph 25.3 mph N/A   Overcast
11:36 PM 26.6 °F 15.2 °F 17.6 °F 69% 29.91 in 2.0 mi SE 13.8 mph 26.5 mph N/A   Overcast
11:56 PM 26.6 °F 15.7 °F 19.4 °F 74% 29.91 in 1.2 mi SE 12.7 mph 24.2 mph N/A   Overcast